Weather History for Jaffrey, NH

Change the Weather History Date:

Friday, November 18, 2011

  Actual Average Record
Temperature  
Mean Temperature 32 °F -  
Max Temperature 37 °F 42 °F 60 °F (2013)
Min Temperature 28 °F 26 °F 17 °F (1997)
Degree Days  
Heating Degree Days 32    
Moisture  
Dew Point 21 °F    
Average Humidity 64    
Maximum Humidity 82    
Minimum Humidity 48    
Precipitation  
Precipitation 0.00 in - - ()
Sea Level Pressure  
Sea Level Pressure 30.25 in    
Wind  
Wind Speed 4 mph (SW)    
Max Wind Speed 10 mph    
Max Gust Speed 20 mph    
Visibility 10 miles    
Events      
Averages and records for this station are not official NWS values.
T = Trace of Precipitation, MM = Missing Value Source: NWS Daily Summary

Daily Weather History Graph

Daily Weather History Graph

Search for Another Location

Airport:

Trip Planner

Search our weather history database for the weather conditions in past years. The results will help you decide how hot, cold, wet, or windy it might be!

Date:

Astronomy

Nov. 18, 2011 Rise Set
Actual Time 6:43 AM EST 4:22 PM EST
Civil Twilight 6:12 AM EST 4:53 PM EST
Nautical Twilight 5:38 AM EST 5:27 PM EST
Astronomical Twilight 5:04 AM EST 6:01 PM EST
Moon 11:52 PM EST (11/18) 12:17 PM EST (11/18)
Length of Visible Light 10h 40m
Length of Day
9h 39m
Waning Gibbous, 49% of the Moon is Illuminated
Nov 18
Waning Gibbous
Nov 25
New
Dec 2
First Quarter
Dec 10
Full
Dec 17
Last Quarter

Hourly Weather History & Observations

Time (EST) Temp. Windchill Dew Point Humidity Pressure Visibility Wind Dir Wind Speed Gust Speed Precip Events Conditions
12:52 AM 32.0 °F - 21.0 °F 64% 29.94 in 10.0 mi Calm Calm - N/A   Clear
1:52 AM 30.9 °F 26.2 °F 21.0 °F 67% 29.98 in 10.0 mi Variable 4.6 mph - N/A   Clear
2:52 AM 30.0 °F 25.2 °F 21.9 °F 72% 30.00 in 10.0 mi SSW 4.6 mph - N/A   Clear
5:52 AM 28.9 °F 23.9 °F 24.1 °F 82% 30.11 in 10.0 mi Variable 4.6 mph - N/A   Partly Cloudy
7:52 AM 30.9 °F 26.2 °F 23.0 °F 72% 30.19 in 10.0 mi West 4.6 mph - N/A   Clear
8:52 AM 33.1 °F 26.9 °F 21.0 °F 61% 30.22 in 10.0 mi WSW 6.9 mph - N/A   Clear
9:52 AM 35.1 °F 27.4 °F 19.0 °F 52% 30.25 in 10.0 mi WNW 10.4 mph 16.1 mph N/A   Clear
11:52 AM 35.1 °F 28.6 °F 19.9 °F 54% 30.27 in 10.0 mi WNW 8.1 mph - N/A   Mostly Cloudy
12:52 PM 35.1 °F 29.3 °F 21.0 °F 57% 30.29 in 10.0 mi Variable 6.9 mph 19.6 mph N/A   Overcast
1:52 PM 37.0 °F 30.4 °F 19.9 °F 50% 30.29 in 10.0 mi NW 9.2 mph - N/A   Scattered Clouds
2:52 PM 37.9 °F 34.4 °F 19.9 °F 48% 30.30 in 10.0 mi Variable 4.6 mph - N/A   Scattered Clouds
4:52 PM 35.1 °F 32.2 °F 21.0 °F 57% 30.34 in 10.0 mi SSW 3.5 mph - N/A   Clear
5:52 PM 32.0 °F 28.7 °F 21.9 °F 66% 30.36 in 10.0 mi Variable 3.5 mph - N/A   Clear
6:52 PM 28.9 °F - 23.0 °F 78% 30.38 in 10.0 mi Calm Calm - N/A   Clear
7:52 PM 30.0 °F 26.5 °F 21.9 °F 72% 30.39 in 10.0 mi SSW 3.5 mph - N/A   Clear
8:52 PM 30.9 °F 24.3 °F 21.0 °F 67% 30.38 in 10.0 mi SSW 6.9 mph - N/A   Clear
9:52 PM 30.9 °F 25.2 °F 21.0 °F 67% 30.38 in 10.0 mi SSW 5.8 mph - N/A   Clear
10:52 PM 30.0 °F 23.2 °F 21.0 °F 69% 30.38 in 10.0 mi SSW 6.9 mph - N/A   Clear
11:52 PM 30.9 °F 24.3 °F 21.9 °F 69% 30.37 in 10.0 mi SSW 6.9 mph - N/A   Clear